Weather History for Ainsworth, NE

Change the Weather History Date:

Tuesday, June 11, 2013

  Actual Average Record
Temperature  
Mean Temperature 75 °F -  
Max Temperature 84 °F 73 °F 87 °F (2000)
Min Temperature 66 °F 51 °F 42 °F (2011)
Cooling Degree Days 10    
Growing Degree Days 25 (Base 50)    
Moisture  
Dew Point 65 °F    
Average Humidity 68    
Maximum Humidity 89    
Minimum Humidity 58    
Precipitation  
Precipitation 0.00 in - - ()
Sea Level Pressure  
Sea Level Pressure 29.76 in    
Wind  
Wind Speed 13 mph (ENE)    
Max Wind Speed 25 mph    
Max Gust Speed 34 mph    
Visibility 10 miles    
Events Thunderstorm    
Averages and records for this station are not official NWS values.
T = Trace of Precipitation, MM = Missing Value Source: NWS Daily Summary

Daily Weather History Graph

Daily Weather History Graph

Search for Another Location

Airport:

Trip Planner

Search our weather history database for the weather conditions in past years. The results will help you decide how hot, cold, wet, or windy it might be!

Date:

Astronomy

Jun. 11, 2013 Rise Set
Actual Time 6:01 AM CDT 9:17 PM CDT
Civil Twilight 5:27 AM CDT 9:52 PM CDT
Nautical Twilight 4:42 AM CDT 10:37 PM CDT
Astronomical Twilight 3:47 AM CDT 11:32 PM CDT
Moon 8:49 AM CDT (6/11) 11:18 PM CDT (6/11)
Length of Visible Light 16h 25m
Length of Day
15h 15m
Waxing Crescent, 8% of the Moon is Illuminated
Jun 11
Waxing Crescent
Jun 16
First Quarter
Jun 23
Full
Jun 29
Last Quarter
Jul 8
New

Hourly Weather History & Observations

Time (CDT) Temp. Heat Index Dew Point Humidity Pressure Visibility Wind Dir Wind Speed Gust Speed Precip Events Conditions
12:15 AM 71.6 °F - 60.8 °F 69% 29.81 in 10.0 mi ESE 10.4 mph - N/A   Clear
12:35 AM 72.0 °F - 60.8 °F 68% 29.81 in 10.0 mi SE 6.9 mph - N/A   Clear
12:55 AM 73.4 °F - 61.3 °F 66% 29.78 in 10.0 mi SE 15.0 mph - N/A   Clear
1:15 AM 74.5 °F - 61.0 °F 63% 29.79 in 10.0 mi SE 13.8 mph - N/A   Clear
1:35 AM 74.1 °F - 61.0 °F 63% 29.80 in 10.0 mi SSE 10.4 mph - N/A   Clear
1:55 AM 74.3 °F - 61.0 °F 63% 29.78 in 10.0 mi SSE 10.4 mph - N/A   Clear
2:15 AM 74.1 °F - 61.3 °F 64% 29.77 in 10.0 mi SSE 16.1 mph - N/A   Clear
2:35 AM 73.8 °F - 62.1 °F 67% 29.76 in 10.0 mi SSE 13.8 mph - N/A   Clear
2:55 AM 75.0 °F - 61.9 °F 64% 29.76 in 10.0 mi SSE 11.5 mph - N/A   Clear
3:15 AM 72.9 °F - 62.1 °F 69% 29.76 in 10.0 mi SSE 11.5 mph - N/A   Clear
3:35 AM 71.4 °F - 62.1 °F 72% 29.75 in 10.0 mi SSE 9.2 mph - N/A   Clear
3:55 AM 69.1 °F - 61.9 °F 78% 29.75 in 10.0 mi Calm Calm - N/A   Clear
4:15 AM 67.8 °F - 63.5 °F 86% 29.76 in 10.0 mi Calm Calm - N/A   Clear
4:35 AM 67.1 °F - 63.1 °F 87% 29.76 in 10.0 mi Calm Calm - N/A   Clear
4:55 AM 68.0 °F - 63.5 °F 85% 29.76 in 10.0 mi NNE 4.6 mph - N/A   Clear
5:15 AM 67.3 °F - 63.5 °F 88% 29.76 in 10.0 mi North 4.6 mph - N/A   Clear
5:35 AM 68.0 °F - 63.5 °F 85% 29.78 in 10.0 mi North 9.2 mph - N/A   Clear
5:55 AM 66.0 °F - 62.6 °F 89% 29.79 in 10.0 mi North 5.8 mph - N/A   Clear
12:55 PM 79.2 °F - 66.6 °F 65% 29.80 in 10.0 mi ENE 13.8 mph 21.9 mph N/A   Clear
1:15 PM 79.7 °F - 66.6 °F 64% 29.81 in 10.0 mi East 15.0 mph 19.6 mph N/A   Clear
1:35 PM 80.1 °F 82.3 °F 66.9 °F 64% 29.82 in 10.0 mi East 11.5 mph 20.7 mph N/A   Scattered Clouds
1:55 PM 80.1 °F 82.4 °F 67.3 °F 65% 29.82 in 10.0 mi NE 12.7 mph 20.7 mph N/A   Scattered Clouds
2:15 PM 81.7 °F 84.5 °F 67.8 °F 63% 29.81 in 10.0 mi ENE 16.1 mph 21.9 mph N/A   Scattered Clouds
2:35 PM 81.3 °F 83.6 °F 66.9 °F 61% 29.79 in 10.0 mi ENE 18.4 mph 27.6 mph N/A   Scattered Clouds
2:55 PM 81.7 °F 84.3 °F 67.5 °F 62% 29.79 in 10.0 mi ENE 17.3 mph 24.2 mph N/A   Scattered Clouds
3:15 PM 78.3 °F - 66.2 °F 66% 29.77 in 10.0 mi East 21.9 mph 26.5 mph N/A   Clear
3:35 PM 79.2 °F - 67.1 °F 66% 29.73 in 10.0 mi East 25.3 mph 34.5 mph N/A   Clear
3:55 PM 82.9 °F 85.8 °F 67.8 °F 60% 29.73 in 10.0 mi East 24.2 mph 31.1 mph N/A   Clear
4:15 PM 84.2 °F 87.3 °F 67.8 °F 58% 29.76 in 10.0 mi ENE 15.0 mph 27.6 mph N/A   Clear
4:35 PM 84.0 °F 87.6 °F 68.5 °F 60% 29.77 in 10.0 mi NE 18.4 mph 21.9 mph N/A   Clear
4:55 PM 83.1 °F 85.9 °F 67.6 °F 59% 29.77 in 10.0 mi NE 16.1 mph 24.2 mph N/A   Mostly Cloudy
5:15 PM 82.8 °F 85.5 °F 67.5 °F 60% 29.76 in 10.0 mi NE 19.6 mph 25.3 mph N/A   Scattered Clouds
5:35 PM 83.3 °F 86.2 °F 67.5 °F 59% 29.76 in 10.0 mi NE 20.7 mph 26.5 mph N/A   Scattered Clouds
5:55 PM 82.6 °F 85.1 °F 67.1 °F 59% 29.76 in 10.0 mi NE 20.7 mph 27.6 mph N/A   Scattered Clouds
6:15 PM 82.2 °F 84.4 °F 66.2 °F 58% 29.74 in 10.0 mi NE 23.0 mph 31.1 mph N/A   Clear
6:35 PM 81.5 °F 83.4 °F 65.5 °F 58% 29.73 in 10.0 mi NE 23.0 mph 31.1 mph N/A   Clear
6:55 PM 81.3 °F 83.2 °F 65.3 °F 58% 29.71 in 10.0 mi ENE 19.6 mph 28.8 mph N/A   Clear
7:15 PM 79.3 °F - 64.8 °F 61% 29.72 in 10.0 mi NE 24.2 mph 29.9 mph N/A   Clear
7:35 PM 78.1 °F - 64.6 °F 63% 29.76 in 10.0 mi NNE 15.0 mph 19.6 mph N/A   Clear
7:55 PM 77.4 °F - 63.9 °F 63% 29.78 in 10.0 mi NNE 15.0 mph - N/A   Scattered Clouds
8:15 PM 77.2 °F - 64.4 °F 65% 29.81 in 10.0 mi NNE 9.2 mph 13.8 mph N/A   Scattered Clouds
8:35 PM 76.5 °F - 64.4 °F 66% 29.76 in 10.0 mi ENE 16.1 mph - N/A   Scattered Clouds
8:55 PM 76.3 °F - 65.3 °F 69% 29.74 in 10.0 mi ENE 12.7 mph 26.5 mph N/A   Clear
9:15 PM 76.1 °F - 65.7 °F 70% 29.76 in 10.0 mi East 15.0 mph 19.6 mph N/A Thunderstorm Clear
9:35 PM 76.3 °F - 66.0 °F 70% 29.80 in 10.0 mi East 5.8 mph - N/A   Scattered Clouds
9:55 PM 75.7 °F - 66.4 °F 73% 29.80 in 10.0 mi ESE 16.1 mph - N/A Thunderstorm Scattered Clouds
10:15 PM 75.6 °F - 66.6 °F 74% 29.75 in 10.0 mi ESE 18.4 mph - N/A   Clear
10:35 PM 75.9 °F - 66.9 °F 74% 29.73 in 10.0 mi ESE 25.3 mph 32.2 mph N/A   Clear
10:55 PM 76.5 °F - 66.2 °F 70% 29.69 in 10.0 mi East 23.0 mph 33.4 mph N/A   Clear
11:15 PM 75.6 °F - 66.4 °F 73% 29.68 in 10.0 mi East 12.7 mph 20.7 mph N/A   Clear
11:35 PM 76.1 °F - 65.5 °F 70% 29.68 in 10.0 mi ENE 10.4 mph - N/A   Clear
11:55 PM 74.5 °F - 66.6 °F 76% 29.73 in 10.0 mi NE 12.7 mph - N/A   Clear